ラーソン彗星

P/2007 V1 ( Larson )

English version
Home page
Total 6,336 html files since Dec. 4, 1995
Updated on April 12, 2008

---------------------------------------------------------------------

・ プロフィール

発見日 2007年11月8日
発見光度 17.3等
発見者 S. M. Larson (Catalina Sky Survey)

・ 写真集

・ 軌道要素

The following orbital elements are taken from MPC 61437:

Epoch 2007 Dec. 6.0 TT = JDT 2454440.5
T 2007 Dec. 8.5018 TT                                   MPC
q   2.676640             (2000.0)            P               Q
n   0.0890223      Peri.   51.4501      +0.5074562      -0.8612652
a   4.967487       Node     8.1862      +0.7208442      +0.4073658
e   0.461168       Incl.   10.7893      +0.4720931      +0.3037687
P  11.1
From 148 observations 2007 Sept. 10-Dec. 16, mean residual 0".6.

・ 星図

・ 光度変化

        m1 = 10.3 + 5 logΔ + 15.0 log r

---------------------------------------------------------------------

軌道要素はMPCのEphemerides and Orbital Elementsに掲載されたものです。
星図はステラナビゲータ Ver.8 (アストロアーツ) で作成したものです。
光度グラフはComet for Windowsで作成したものです。

---------------------------------------------------------------------

Copyright(C) 1995-2008 Seiichi Yoshida (comet@aerith.net). All rights reserved.